When you browse on this site, cookies collect data to enhance your experience and personalize the content and advertising you see.
Visit our Privacy Policy to learn more. By continuing to use the site, you agree to this use of cookies and data.
  • In United Kingdom
  • List of Countries
  • For 7 days
  • Water Temperature
  • Weather Map
  • Weather Widgets
  • user-avatar
    Login

    Hourly Weather Polotsk

    Today, 20 February, Thursday

    Time Temperature Precipitation Wind Pressure Humidity
    00:00 +1°C° 0 mm 3 mps 744 mmHg 89%
    01:00 +1°C° 0 mm 3 mps 745 mmHg 89%
    02:00 +1°C° 0 mm 3 mps 745 mmHg 91%
    03:00 +1°C° 0 mm 3 mps 745 mmHg 92%
    04:00 +1°C° 0 mm 3 mps 745 mmHg 93%
    05:00 +1°C° 0 mm 2 mps 745 mmHg 94%
    06:00 0°C° 0 mm 3 mps 746 mmHg 93%
    07:00 0°C° 0 mm 3 mps 746 mmHg 93%
    08:00 0°C° 0 mm 3 mps 746 mmHg 92%
    09:00 +1°C° 0 mm 3 mps 747 mmHg 88%
    10:00 +2°C° 0 mm 3 mps 747 mmHg 84%
    11:00 +3°C° 0 mm 3 mps 748 mmHg 79%
    12:00 +3°C° 0 mm 3 mps 748 mmHg 80%
    13:00 +3°C° 0 mm 3 mps 748 mmHg 80%
    14:00 +4°C° 0 mm 3 mps 748 mmHg 80%
    15:00 +3°C° 0 mm 3 mps 748 mmHg 81%
    16:00 +4°C° 0 mm 2 mps 749 mmHg 82%
    17:00 +4°C° 0 mm 2 mps 749 mmHg 82%
    18:00 +3°C° 0 mm 2 mps 749 mmHg 84%
    19:00 +3°C° 0 mm 2 mps 749 mmHg 86%
    20:00 +2°C° 0 mm 2 mps 750 mmHg 88%
    21:00 +2°C° 0 mm 2 mps 750 mmHg 89%
    22:00 +1°C° 0 mm 2 mps 749 mmHg 90%
    23:00 +1°C° 0 mm 2 mps 749 mmHg 91%

    Tomorrow, 21 February, Friday

    Time Temperature Precipitation Wind Pressure Humidity
    00:00 +1°C° 0 mm 2 mps 749 mmHg 91%
    01:00 +1°C° 0 mm 2 mps 749 mmHg 90%
    02:00 -1°C° 0 mm 2 mps 749 mmHg 90%
    03:00 -1°C° 0 mm 2 mps 749 mmHg 89%
    04:00 -1°C° 0 mm 3 mps 748 mmHg 88%
    05:00 -1°C° 0 mm 3 mps 748 mmHg 87%
    06:00 0°C° 0 mm 3 mps 748 mmHg 85%
    07:00 -1°C° 0 mm 4 mps 747 mmHg 84%
    08:00 0°C° 0 mm 4 mps 747 mmHg 83%
    15:00 +2°C° 0 mm 5 mps 746 mmHg 62%
    16:00 +2°C° 0 mm 5 mps 746 mmHg 65%
    17:00 +1°C° 0 mm 4 mps 746 mmHg 69%
    18:00 +1°C° 0 mm 4 mps 746 mmHg 72%
    19:00 0°C° 0 mm 4 mps 747 mmHg 74%
    20:00 0°C° 0 mm 4 mps 747 mmHg 77%
    21:00 0°C° 0 mm 4 mps 747 mmHg 82%
    22:00 0°C° 0 mm 4 mps 747 mmHg 86%
    23:00 0°C° 0 mm 3 mps 747 mmHg 91%

    Day after tomorrow, 22 February, Saturday

    Time Temperature Precipitation Wind Pressure Humidity
    00:00 0°C° 0 mm 3 mps 748 mmHg 92%
    01:00 0°C° 0 mm 3 mps 748 mmHg 93%
    02:00 0°C° 0 mm 3 mps 748 mmHg 94%
    03:00 0°C° 0 mm 3 mps 748 mmHg 94%
    04:00 0°C° 0 mm 3 mps 748 mmHg 95%
    05:00 -1°C° 0 mm 3 mps 748 mmHg 95%
    06:00 -2°C° 0 mm 4 mps 749 mmHg 93%
    07:00 -1°C° 0 mm 4 mps 749 mmHg 92%
    08:00 -1°C° 0 mm 4 mps 749 mmHg 90%
    09:00 0°C° 0 mm 4 mps 749 mmHg 85%
    10:00 0°C° 0 mm 5 mps 748 mmHg 81%
    11:00 +1°C° 0 mm 5 mps 748 mmHg 76%
    12:00 +1°C° 0 mm 6 mps 748 mmHg 74%
    13:00 +1°C° 0 mm 6 mps 747 mmHg 72%
    14:00 0°C° 0 mm 7 mps 747 mmHg 70%
    15:00 0°C° 0 mm 7 mps 746 mmHg 71%
    16:00 0°C° 0 mm 7 mps 745 mmHg 71%
    17:00 0°C° 0 mm 7 mps 744 mmHg 71%
    18:00 0°C° 0.3 mm 7 mps 742 mmHg 78%
    19:00 -1°C° 0.3 mm 8 mps 741 mmHg 84%
    20:00 -1°C° 0.3 mm 9 mps 740 mmHg 90%
    21:00 -1°C° 0.3 mm 9 mps 739 mmHg 90%
    22:00 0°C° 0.3 mm 9 mps 737 mmHg 90%
    23:00 0°C° 0.3 mm 9 mps 736 mmHg 89%

    23 February, Sunday

    Time Temperature Precipitation Wind Pressure Humidity
    00:00 +1°C° 0.4 mm 9 mps 735 mmHg 87%
    01:00 +1°C° 0.4 mm 9 mps 735 mmHg 84%
    02:00 +1°C° 0.4 mm 9 mps 734 mmHg 82%
    03:00 +1°C° 0.1 mm 8 mps 734 mmHg 80%
    04:00 +2°C° 0.1 mm 7 mps 733 mmHg 79%
    05:00 +2°C° 0.1 mm 7 mps 733 mmHg 78%
    06:00 +1°C° 0 mm 6 mps 733 mmHg 78%
    07:00 +1°C° 0 mm 6 mps 733 mmHg 78%
    08:00 -1°C° 0 mm 6 mps 733 mmHg 79%
    09:00 -1°C° 0 mm 6 mps 733 mmHg 74%
    10:00 0°C° 0 mm 7 mps 733 mmHg 70%
    11:00 0°C° 0 mm 8 mps 733 mmHg 65%
    12:00 +1°C° 0.1 mm 8 mps 734 mmHg 63%
    13:00 +1°C° 0.1 mm 8 mps 734 mmHg 61%
    14:00 +1°C° 0.1 mm 8 mps 734 mmHg 59%
    15:00 +2°C° 0 mm 7 mps 734 mmHg 61%
    16:00 +1°C° 0 mm 6 mps 734 mmHg 63%
    17:00 +1°C° 0 mm 5 mps 734 mmHg 65%
    18:00 +1°C° 0 mm 6 mps 734 mmHg 68%
    19:00 -1°C° 0 mm 6 mps 734 mmHg 72%
    20:00 -1°C° 0 mm 6 mps 734 mmHg 75%
    21:00 -2°C° 0 mm 6 mps 734 mmHg 78%
    22:00 -2°C° 0 mm 6 mps 733 mmHg 80%
    23:00 -2°C° 0 mm 6 mps 733 mmHg 82%

    24 February, Monday

    Time Temperature Precipitation Wind Pressure Humidity
    00:00 -2°C° 0 mm 6 mps 733 mmHg 84%
    01:00 -2°C° 0 mm 6 mps 733 mmHg 86%
    02:00 -2°C° 0 mm 6 mps 732 mmHg 88%
    03:00 -1°C° 0.1 mm 5 mps 732 mmHg 90%
    04:00 -2°C° 0.1 mm 5 mps 732 mmHg 91%
    05:00 -2°C° 0.1 mm 5 mps 732 mmHg 93%
    06:00 -2°C° 0.5 mm 5 mps 732 mmHg 92%
    07:00 -1°C° 0.5 mm 4 mps 732 mmHg 92%
    08:00 -1°C° 0.5 mm 4 mps 733 mmHg 92%
    09:00 0°C° 0.1 mm 5 mps 733 mmHg 88%
    10:00 0°C° 0.1 mm 5 mps 734 mmHg 83%
    11:00 -1°C° 0.1 mm 6 mps 735 mmHg 78%
    12:00 +1°C° 0.1 mm 6 mps 735 mmHg 75%
    13:00 +1°C° 0.1 mm 6 mps 736 mmHg 72%
    14:00 0°C° 0.1 mm 7 mps 736 mmHg 69%
    15:00 +1°C° 0.1 mm 6 mps 737 mmHg 68%
    16:00 -1°C° 0.1 mm 6 mps 738 mmHg 68%
    17:00 0°C° 0.1 mm 5 mps 738 mmHg 67%
    18:00 -1°C° 0 mm 5 mps 739 mmHg 74%
    19:00 -1°C° 0 mm 4 mps 740 mmHg 81%
    20:00 -2°C° 0 mm 4 mps 741 mmHg 87%
    21:00 -2°C° 0 mm 4 mps 741 mmHg 87%
    22:00 -3°C° 0 mm 4 mps 742 mmHg 86%
    23:00 -2°C° 0 mm 3 mps 743 mmHg 86%

    25 February, Tuesday

    Time Temperature Precipitation Wind Pressure Humidity
    00:00 -2°C° 0 mm 3 mps 743 mmHg 85%
    01:00 -4°C° 0 mm 3 mps 743 mmHg 85%
    02:00 -3°C° 0 mm 2 mps 743 mmHg 85%
    03:00 -3°C° 0 mm 2 mps 743 mmHg 85%
    04:00 -1°C° 0 mm 1 mps 743 mmHg 84%
    05:00 -2°C° 0 mm 0 mps 743 mmHg 84%
    06:00 -1°C° 0 mm 1 mps 743 mmHg 82%
    07:00 -1°C° 0 mm 1 mps 743 mmHg 80%
    08:00 -3°C° 0 mm 2 mps 743 mmHg 78%
    09:00 -2°C° 0 mm 2 mps 742 mmHg 72%
    10:00 -1°C° 0 mm 3 mps 742 mmHg 67%
    11:00 -1°C° 0 mm 4 mps 741 mmHg 62%
    12:00 -1°C° 0 mm 4 mps 741 mmHg 61%
    13:00 0°C° 0 mm 5 mps 740 mmHg 60%
    14:00 +1°C° 0 mm 5 mps 739 mmHg 58%
    15:00 0°C° 0.1 mm 5 mps 739 mmHg 69%
    16:00 -2°C° 0.1 mm 6 mps 738 mmHg 80%
    17:00 -2°C° 0.1 mm 6 mps 737 mmHg 91%
    18:00 -1°C° 0.4 mm 5 mps 737 mmHg 93%
    19:00 -1°C° 0.4 mm 5 mps 736 mmHg 94%
    20:00 0°C° 0.4 mm 4 mps 736 mmHg 96%
    21:00 0°C° 0.1 mm 4 mps 736 mmHg 96%
    22:00 0°C° 0.1 mm 4 mps 735 mmHg 95%
    23:00 +1°C° 0.1 mm 3 mps 735 mmHg 95%
    Show more